PSLV DEB, 27124

Orbit data source: Space-Track

PSLV DEB, 27124 is space debris in SSO originally from a launch on Mon, 22 Oct 2001 UTC launched from the Sirharikota (SRI). Debris objects in space refer to the collection of defunct objects orbiting the Earth. Examples of debris include non-operational satellites, rocket bodies, and fragments generated from explosions, collisions, or faulty payload assembly.

Loading next visibility...
Identifier
27124, 2001-049BU
Orbit
SSO
Last TLE update
12 hours ago
Origin
Manufacturer
VSSC/LPSC
Mission
Spacecraft
Bus & Motor
Unknown
Mass
Unknown
Launch date (UTC)
2001-10-22 (24 years ago)
Launch vehicle
Unknown
Launch site
Sirharikota (SRI)
Object type
Payload
Rocket body
Debris
Shape & HBR
Unknown
Radar Cross Section
0.400 m², Medium (>0.1 m² and < 1m²)

Expand to show TLE details & history

TLE from 12 hours ago
0 PSLV DEB
1 27124U 01049BU  25185.74273870  .00002268  00000-0  23538-3 0  9991
2 27124  98.0992 238.8693 0031193 109.4775   5.5987 14.90673044267922
Epoch: 2025-07-04T17:49Z
TLE epoch observation values (Epoch: 2025-07-04T17:49:32.623Z)
Latitude
63.78976°
Longitude
-114.79919°
Altitude
585.163 km
Speed
7.586 km/s
True Right ascension
05h 02m 18s
True Declination
63° 38' 59"
Sunlit
Object was in daylight at epoch
Visualization orbit readout
Latitude
-32.93142°
Longitude
-136.2668°
Altitude
613.898 km
Speed
7.548 km/s
Apparent Right ascension
04h 26m 04s
Apparent Declination
-36° 52' 07"
Sunlit
Object is in daylight
Visualization observer readout
Local Sidereal Time
17:25:47
Azimuth
80.137° E
Elevation
-77.925°
Doppler factor
1
Orbital elements
Apogee altitude
614.616 km
Perigee altitude
571.127 km
Semi-major axis
6,971.008 km
Eccentricity
0.00312
Inclination
98.0992°
RAAN
238.8693°
Arg. of periapsis
109.4775°
True anomaly
Unknown
Mean anomaly
5.5987°
Eccentric anomaly
Unknown
Mean motion
3.72906 °/min
Orbital period
96.54 mins
BSTAR
0.00023538
Loading maneuver chart data...
Loading SW <> Apogee altitude chart data...
Loading historical data...
Loading historical data...
Loading historical data...
Loading historical data...
Loading historical data...
Loading historical data...
Loading historical data...

PSLV DEB Visibility forecast

Observer location: undefined°, undefined°

Span
Click to sort rows by Start time (UTC) header in descending order
Start Az.
Max El. time (UTC)
Max El. Az.
Max El.
End time (UTC)
End Az.
8 mins2025-07-05 16:25:22.275Z13.873° NNE2025-07-05 16:29:22.275Z122.131° SE44.891°2025-07-05 16:33:22.275Z192.239° SSW
6 mins2025-07-06 03:17:22.275Z143.051° SSE2025-07-06 03:19:22.275Z92.232° ESE39.03°2025-07-06 03:23:22.275Z357.188° N
|